{"data":{"norad_id":60070,"intl_designator":"2024-113M","name":"STARLINK-11186 [DTC]","alt_names":[],"object_type":"PAYLOAD","status":"ACTIVE","operator":null,"country":"US","launch_date":"2024-06-19","launch_site_code":"AFWTR","launch_vehicle":null,"mission":null,"orbit_class":"UNKNOWN","rcs_meters":null,"size_class":null,"mass_kg":null,"dimensions":null,"purposes":["comms"],"wikipedia_slug":null,"has_3d_model":false,"image_url":null,"decayed_at":null,"tle_current":{"epoch":"2026-05-25T01:34:55.053408Z","epoch_age_seconds":69120,"freshness":"FRESH","line1":"1 60070U 24113M   26145.06591497  .00003151  00000+0  30848-4 0  9999","line2":"2 60070  53.1594 174.9460 0000998  86.4199 273.6933 15.69713778111961","mean_motion":15.69713778,"eccentricity":9.98e-5,"inclination_deg":53.1594,"raan_deg":174.946,"arg_perigee_deg":86.4199,"mean_anomaly_deg":273.6933,"bstar":3.0848e-5,"rev_number":11196,"period_min":91.736469424046,"perigee_km":359.04350152827,"apogee_km":360.38837697494,"semimajor_km":6737.8529392516,"source":"CELESTRAK","updated_at":"2026-05-25T13:38:19.158935Z"}}}